[TLELIST]

Mailing List Information:

  • This mailing list is a public mailing list - anyone may join or leave, at any time.

  • This mailing list is announce-only.

International Space Station (ISS) / Hubble Space Telescope (HST) / Chandra X-Ray Observatory Orbital Data via EMAIL

Privacy Policy:

Private list

Archives:

[TLELIST] Current TLEs

Sent September 25th 2017

HST 1 20580U 90037B 17267.90609505 +.00000640 +00000-0 +28441-4 0 9994 2 20580 028.4697 068.5581 0002776 162.2236 328.6132 15.08858732305279 ISS (ZARYA) 1 25544U 98067A 17268.43808561 .00002191 00000-0 40182-4 0 9991 2 25544 51.6417 258.5588 0004013 324.1854 194.7013 15.54244714 77345 CXO 1 25867U 99040B 17269.84911286 .00000463 00000-0 00000+0 0 9996 2 25867 73.3583 288.0311 6808278 249.2557 0.2161 0.37805003 16435 ____________________________________________________________________ These 2-Line ...

[TLELIST] Current TLEs

Sent September 24th 2017

HST 1 20580U 90037B 17266.85016821 +.00000572 +00000-0 +24221-4 0 9996 2 20580 028.4697 075.5366 0002799 151.3289 352.4666 15.08857411305113 ISS (ZARYA) 1 25544U 98067A 17267.40705235 .00001535 00000-0 30330-4 0 9996 2 25544 51.6412 263.6991 0003895 319.5116 186.6342 15.54236711 77186 CXO 1 25867U 99040B 17269.84911286 .00000463 00000-0 00000+0 0 9996 2 25867 73.3583 288.0311 6808278 249.2557 0.2161 0.37805003 16435 ____________________________________________________________________ These 2-Line ...

[TLELIST] Current TLEs

Sent September 23rd 2017

HST 1 20580U 90037B 17266.15458333 .00000547 00000-0 22724-4 0 9995 2 20580 28.4697 80.1336 0002809 144.2248 173.7474 15.08856681305096 ISS (ZARYA) 1 25544U 98067A 17266.23509079 .00001631 00000-0 31778-4 0 9998 2 25544 51.6410 269.5406 0003845 314.6247 109.7632 15.54232040 77006 CXO 1 25867U 99040B 17267.20373233 .00000411 00000-0 00000+0 0 9991 2 25867 73.3795 288.0911 6811057 249.3104 0.0868 0.37807285 16429 ____________________________________________________________________ These 2-Line ...

[TLELIST] Current TLEs

Sent September 22nd 2017

HST 1 20580U 90037B 17265.09092593 .00000546 00000-0 22617-4 0 9999 2 20580 28.4696 87.1632 0002822 132.7696 156.0929 15.08855753304935 ISS (ZARYA) 1 25544U 98067A 17265.27122586 .00001537 00000-0 30357-4 0 9992 2 25544 51.6413 274.3478 0003731 308.7797 118.9887 15.54227746 76853 CXO 1 25867U 99040B 17267.20373233 .00000411 00000-0 00000+0 0 9991 2 25867 73.3795 288.0911 6811057 249.3104 0.0868 0.37807285 16429 ____________________________________________________________________ These 2-Line ...

[TLELIST] Current TLEs

Sent September 21st 2017

HST 1 20580U 90037B 17263.93434819 +.00000557 +00000-0 +23311-4 0 9995 2 20580 028.4695 094.8069 0002867 120.2635 353.7602 15.08854733304679 ISS (ZARYA) 1 25544U 98067A 17263.84447917 +.00001970 +00000-0 +36880-4 0 9999 2 25544 051.6423 281.4614 0003661 298.9160 060.6146 15.54223264076628 CXO 1 25867U 99040B 17267.20373233 .00000411 00000-0 00000+0 0 9991 2 25867 73.3795 288.0911 6811057 249.3104 0.0868 0.37807285 16429 ____________________________________________________________________ These 2-Line ...

[TLELIST] Current TLEs

Sent September 20th 2017

HST 1 20580U 90037B 17262.94147632 +.00000583 +00000-0 +24950-4 0 9998 2 20580 028.4694 101.3685 0002869 110.7690 359.4128 15.08853925304525 ISS (ZARYA) 1 25544U 98067A 17262.88074074 +.00002350 +00000-0 +42604-4 0 9996 2 25544 051.6424 286.2669 0003638 294.7905 068.8656 15.54220232076489 CXO 1 25867U 99040B 17264.55902618 +.00000383 +00000-0 +00000-0 0 9990 2 25867 073.4055 288.1602 6812524 249.3538 000.0884 00.37808808005280 ____________________________________________________________________ These 2-Line ...

[TLELIST] Current TLEs

Sent September 19th 2017

HST 1 20580U 90037B 17262.04175927 .00000627 00000-0 27661-4 0 9998 2 20580 28.4693 107.3144 0002876 102.0710 151.2800 15.08853257304472 ISS (ZARYA) 1 25544U 98067A 17262.25536781 +.00002362 +00000-0 +42787-4 0 9990 2 25544 051.6430 289.3839 0003612 291.7007 170.5597 15.54216953076380 CXO 1 25867U 99040B 17264.55817661 .00000383 00000-0 00000+0 0 9992 2 25867 73.4055 288.1603 6812533 249.3539 359.9722 0.37808642 16412 ____________________________________________________________________ These 2-Line ...

[TLELIST] Current TLEs

Sent September 18th 2017

HST 1 20580U 90037B 17261.26104167 +.00000654 +00000-0 +29324-4 0 9997 2 20580 028.4693 112.4740 0002874 094.1389 230.0528 15.08852556304263 ISS (ZARYA) 1 25544U 98067A 17261.22934060 +.00002325 +00000-0 +42231-4 0 9991 2 25544 051.6426 294.4989 0003733 287.6879 189.9670 15.54210685076228 CXO 1 25867U 99040B 17261.91517248 +.00000397 +00000-0 +00000-0 0 9993 2 25867 073.4308 288.2352 6811765 249.3936 000.2225 00.37807360016401 ____________________________________________________________________ These 2-Line ...

[TLELIST] Current TLEs

Sent September 17th 2017

HST 1 20580U 90037B 17259.90108635 .00000728 00000-0 33941-4 0 9991 2 20580 28.4692 121.4618 0002884 80.4525 42.0077 15.08851544304151 ISS (ZARYA) 1 25544U 98067A 17259.85598380 +.00002391 +00000-0 +43245-4 0 9997 2 25544 051.6430 301.3440 0003691 279.9412 068.4911 15.54203003076004 CXO 1 25867U 99040B 17261.91517248 +.00000397 +00000-0 +00000-0 0 9993 2 25867 073.4308 288.2352 6811765 249.3936 000.2225 00.37807360016401 ____________________________________________________________________ These 2-Line ...

[TLELIST] Current TLEs

Sent September 16th 2017

HST 1 20580U 90037B 17258.90828509 +.00000722 +00000-0 +33556-4 0 9995 2 20580 028.4692 128.0228 0002842 070.8659 048.1498 15.08850381303911 ISS (ZARYA) 1 25544U 98067A 17258.66207433 +.00002352 +00000-0 +42668-4 0 9996 2 25544 051.6434 307.2969 0003696 276.6985 227.2383 15.54196035075826 CXO 1 25867U 99040B 17259.27084109 +.00000454 +00000-0 +00000-0 0 9998 2 25867 073.4529 288.3052 6808799 249.4425 000.2678 00.37803369005259 ____________________________________________________________________ These 2-Line ...

< < Previous

Index

 

this list's archives:

(archive rss , atom rss/atom )

Administration